QPF
0.00 0.00 0.00 0.01 0.05 0.07 0.08 0.04 0.01 0.00 0.00 0.00 0.00 0.00 0.00 0.00 0.00 0.01 0.00 0.00 0.00 0.00 0.00 0.00 0.00 0.00 0.00 0.00 0.00 0.00 0.00 0.00 0.00 0.00 0.00 0.00 0.00 0.00 0.00 0.00 0.00 0.00 0.00 0.01 0.00 0.00 0.00 0.00 0.00
0.00 0.00 0.00 0.01 0.05 0.15 0.12 0.04 0.00 0.00 0.00 0.00 0.00 0.00 0.00 0.00 0.00 0.00 0.00 0.00 0.00 0.00 0.00 0.00 0.00 0.00 0.00 0.00 0.00 0.00 0.00 0.00 0.00 0.00 0.00 0.00 0.00 0.00 0.00 0.00 0.01 0.01 0.01 0.01 0.00 0.00 0.00 0.00 0.00
0.00 0.00 0.00 0.00 0.03 0.06 0.04 0.01 0.00 0.00 0.00 0.00 0.00 0.00 0.00 0.00 0.00 0.00 0.00 0.00 0.00 0.00 0.00 0.00 0.00 0.00 0.00 0.00 0.00 0.00 0.00 0.00 0.00 0.00 0.00 0.00 0.00 0.00 0.00 0.00 0.01 0.00 0.00 0.01 0.01 0.00 0.00 0.00 0.00
0.00 0.00 0.00 0.01 0.01 0.01 0.00 0.00 0.00 0.00 0.00 0.00 0.00 0.00 0.00 0.00 0.00 0.00 0.00 0.00 0.00 0.00 0.00 0.00 0.00 0.00 0.00 0.00 0.00 0.00 0.00 0.00 0.00 0.00 0.00 0.00 0.00 0.00 0.00 0.00 0.00 0.01 0.01 0.01 0.00 0.00 0.00 0.00 0.00
0.00 0.00 0.00 0.01 0.01 0.00 0.00 0.00 0.00 0.00 0.00 0.00 0.00 0.00 0.00 0.00 0.00 0.00 0.00 0.00 0.00 0.00 0.00 0.00 0.00 0.00 0.00 0.00 0.00 0.00 0.00 0.00 0.00 0.00 0.00 0.00 0.00 0.00 0.00 0.01 0.01 0.01 0.01 0.01 0.00 0.00 0.00 0.00 0.00
0.00 0.00 0.00 0.01 0.00 0.00 0.00 0.00 0.00 0.00 0.00 0.00 0.00 0.00 0.00 0.00 0.00 0.00 0.00 0.00 0.00 0.00 0.00 0.00 0.00 0.00 0.00 0.00 0.00 0.00 0.00 0.00 0.00 0.00 0.00 0.00 0.00 0.00 0.01 0.01 0.01 0.01 0.00 0.00 0.00 0.00 0.00 0.00 0.00
0.00 0.00 0.00 0.00 0.00 0.00 0.00 0.00 0.00 0.00 0.00 0.00 0.00 0.00 0.00 0.00 0.00 0.00 0.00 0.00 0.00 0.00 0.00 0.00 0.00 0.00 0.00 0.00 0.00 0.00 0.00 0.00 0.00 0.00 0.00 0.00 0.00 0.00 0.00 0.00 0.01 0.00 0.01 0.00 0.00 0.00 0.00 0.00 0.00
0.00 0.00 0.00 0.00 0.00 0.00 0.00 0.00 0.00 0.00 0.00 0.00 0.00 0.00 0.01 0.00 0.00 0.00 0.00 0.00 0.00 0.00 0.00 0.00 0.00 0.00 0.00 0.00 0.00 0.00 0.00 0.00 0.00 0.00 0.00 0.00 0.00 0.00 0.01 0.01 0.01 0.00 0.01 0.00 0.00 0.01 0.01 0.00 0.00
0.00 0.00 0.00 0.00 0.00 0.00 0.00 0.00 0.00 0.00 0.00 0.00 0.00 0.00 0.00 0.00 0.00 0.00 0.00 0.00 0.00 0.00 0.00 0.00 0.00 0.00 0.00 0.00 0.00 0.00 0.00 0.00 0.00 0.00 0.00 0.00 0.00 0.00 0.01 0.01 0.01 0.01 0.01 0.00 0.01 0.01 0.01 0.01 0.01
0.00 0.00 0.00 0.00 0.00 0.00 0.00 0.00 0.00 0.00 0.00 0.00 0.01 0.01 0.01 0.02 0.01 0.00 0.00 0.00 0.00 0.00 0.00 0.00 0.00 0.00 0.00 0.01 0.02 0.02 0.02 0.02 0.01 0.02 0.01 0.01 0.01 0.01 0.01 0.03 0.03 0.02 0.01 0.01 0.01 0.02 0.02 0.01 0.03
0.00 0.00 0.00 0.00 0.00 0.00 0.00 0.00 0.00 0.00 0.00 0.01 0.03 0.03 0.04 0.07 0.02 0.00 0.00 0.00 0.00 0.00 0.00 0.00 0.00 0.00 0.01 0.02 0.02 0.02 0.03 0.04 0.03 0.03 0.03 0.03 0.03 0.02 0.02 0.04 0.05 0.04 0.03 0.03 0.04 0.04 0.05 0.05 0.08
0.00 0.00 0.00 0.00 0.00 0.00 0.00 0.00 0.00 0.00 0.00 0.01 0.03 0.04 0.08 0.07 0.02 0.01 0.02 0.04 0.00 0.00 0.00 0.00 0.00 0.01 0.01 0.02 0.03 0.03 0.03 0.04 0.05 0.06 0.08 0.08 0.07 0.06 0.06 0.06 0.07 0.08 0.11 0.10 0.09 0.11 0.12 0.11 0.12
0.00 0.00 0.00 0.00 0.00 0.00 0.00 0.00 0.00 0.00 0.00 0.00 0.00 0.01 0.01 0.01 0.01 0.01 0.00 0.01 0.00 0.00 0.00 0.00 0.01 0.01 0.02 0.03 0.04 0.03 0.03 0.04 0.04 0.05 0.07 0.09 0.10 0.10 0.10 0.12 0.13 0.11 0.14 0.15 0.16 0.15 0.18 0.17 0.16
0.00 0.00 0.00 0.00 0.00 0.00 0.00 0.00 0.00 0.00 0.00 0.00 0.00 0.00 0.00 0.00 0.00 0.00 0.01 0.03 0.04 0.03 0.02 0.01 0.02 0.03 0.05 0.06 0.06 0.04 0.03 0.04 0.03 0.04 0.06 0.10 0.12 0.12 0.13 0.14 0.16 0.14 0.13 0.13 0.17 0.16 0.18 0.17 0.17
0.00 0.00 0.00 0.00 0.00 0.00 0.00 0.00 0.00 0.00 0.00 0.00 0.00 0.00 0.01 0.01 0.01 0.01 0.01 0.02 0.04 0.04 0.03 0.04 0.04 0.05 0.07 0.09 0.10 0.08 0.06 0.04 0.03 0.06 0.09 0.12 0.12 0.13 0.13 0.13 0.14 0.13 0.12 0.15 0.14 0.14 0.17 0.15 0.12
0.00 0.00 0.00 0.00 0.00 0.00 0.00 0.01 0.00 0.00 0.00 0.00 0.01 0.02 0.01 0.01 0.02 0.02 0.02 0.02 0.03 0.04 0.04 0.04 0.04 0.06 0.09 0.11 0.11 0.10 0.08 0.10 0.09 0.11 0.12 0.14 0.15 0.14 0.15 0.15 0.15 0.16 0.17 0.17 0.18 0.16 0.18 0.19 0.15
0.00 0.00 0.00 0.00 0.00 0.00 0.00 0.01 0.00 0.00 0.01 0.00 0.00 0.01 0.01 0.01 0.01 0.01 0.02 0.02 0.02 0.04 0.05 0.06 0.09 0.11 0.11 0.10 0.11 0.11 0.12 0.13 0.13 0.15 0.17 0.19 0.20 0.21 0.22 0.24 0.26 0.23 0.21 0.20 0.17 0.20 0.23 0.22 0.18
0.00 0.00 0.01 0.01 0.00 0.00 0.00 0.00 0.00 0.00 0.00 0.00 0.00 0.00 0.00 0.00 0.01 0.01 0.02 0.02 0.02 0.04 0.06 0.07 0.08 0.09 0.11 0.14 0.20 0.18 0.14 0.14 0.15 0.16 0.18 0.21 0.19 0.20 0.23 0.26 0.29 0.26 0.21 0.19 0.20 0.22 0.22 0.21 0.20
0.00 0.01 0.03 0.01 0.00 0.00 0.00 0.00 0.01 0.01 0.04 0.04 0.02 0.01 0.01 0.01 0.00 0.01 0.01 0.01 0.01 0.02 0.04 0.06 0.08 0.10 0.12 0.15 0.15 0.15 0.13 0.13 0.13 0.14 0.16 0.18 0.18 0.19 0.21 0.23 0.27 0.25 0.22 0.20 0.20 0.22 0.20 0.16 0.14
0.00 0.01 0.01 0.00 0.00 0.00 0.00 0.01 0.03 0.06 0.13 0.10 0.03 0.02 0.02 0.02 0.01 0.01 0.01 0.01 0.01 0.02 0.03 0.03 0.05 0.06 0.07 0.08 0.09 0.08 0.07 0.08 0.10 0.12 0.14 0.14 0.14 0.15 0.18 0.22 0.24 0.23 0.24 0.24 0.22 0.22 0.21 0.18 0.14
0.00 0.00 0.00 0.00 0.00 0.00 0.01 0.11 0.16 0.18 0.14 0.05 0.02 0.03 0.02 0.01 0.01 0.00 0.00 0.00 0.00 0.00 0.01 0.01 0.02 0.03 0.04 0.05 0.06 0.05 0.05 0.07 0.10 0.10 0.12 0.13 0.13 0.13 0.17 0.20 0.22 0.22 0.23 0.26 0.25 0.23 0.22 0.19 0.15
0.00 0.00 0.00 0.00 0.00 0.02 0.05 0.15 0.28 0.33 0.25 0.10 0.03 0.02 0.01 0.00 0.01 0.00 0.00 0.00 0.00 0.00 0.00 0.01 0.01 0.01 0.01 0.02 0.04 0.05 0.05 0.05 0.05 0.05 0.05 0.06 0.07 0.09 0.12 0.14 0.15 0.17 0.16 0.19 0.18 0.20 0.21 0.19 0.14
0.00 0.00 0.00 0.00 0.00 0.01 0.03 0.12 0.31 0.48 0.48 0.18 0.05 0.02 0.00 0.00 0.00 0.00 0.00 0.00 0.00 0.00 0.00 0.00 0.01 0.01 0.01 0.02 0.02 0.03 0.03 0.04 0.04 0.03 0.03 0.02 0.03 0.03 0.03 0.06 0.09 0.11 0.12 0.15 0.17 0.19 0.19 0.17 0.15
0.00 0.00 0.00 0.01 0.04 0.09 0.11 0.19 0.35 0.46 0.38 0.13 0.03 0.01 0.00 0.01 0.01 0.00 0.00 0.00 0.00 0.00 0.00 0.00 0.01 0.01 0.01 0.01 0.02 0.02 0.03 0.03 0.03 0.03 0.02 0.02 0.02 0.02 0.02 0.03 0.04 0.06 0.09 0.13 0.17 0.18 0.19 0.20 0.18
0.00 0.01 0.06 0.18 0.24 0.30 0.23 0.21 0.25 0.11 0.05 0.03 0.02 0.01 0.00 0.01 0.02 0.02 0.01 0.01 0.01 0.00 0.00 0.00 0.01 0.01 0.02 0.01 0.02 0.02 0.02 0.02 0.02 0.02 0.02 0.02 0.01 0.01 0.01 0.01 0.02 0.03 0.04 0.06 0.10 0.12 0.14 0.18 0.21
0.00 0.01 0.03 0.08 0.12 0.17 0.17 0.28 0.23 0.05 0.01 0.00 0.00 0.01 0.00 0.01 0.02 0.04 0.04 0.02 0.01 0.02 0.02 0.02 0.02 0.02 0.02 0.02 0.02 0.02 0.02 0.01 0.01 0.02 0.01 0.01 0.01 0.00 0.01 0.01 0.01 0.01 0.01 0.01 0.03 0.06 0.10 0.14 0.17
0.00 0.00 0.00 0.00 0.01 0.05 0.17 0.30 0.18 0.05 0.01 0.00 0.00 0.00 0.00 0.01 0.02 0.02 0.01 0.01 0.01 0.02 0.02 0.01 0.01 0.02 0.02 0.02 0.02 0.02 0.01 0.01 0.01 0.01 0.01 0.00 0.00 0.00 0.00 0.01 0.01 0.01 0.01 0.01 0.01 0.02 0.04 0.08 0.12
0.00 0.00 0.00 0.00 0.01 0.03 0.12 0.27 0.24 0.10 0.03 0.01 0.00 0.00 0.00 0.00 0.00 0.00 0.00 0.00 0.00 0.00 0.00 0.00 0.00 0.00 0.01 0.01 0.01 0.01 0.01 0.01 0.01 0.01 0.01 0.00 0.00 0.00 0.00 0.00 0.00 0.00 0.01 0.01 0.01 0.02 0.02 0.03 0.06
0.00 0.00 0.00 0.00 0.00 0.01 0.05 0.11 0.07 0.06 0.04 0.01 0.00 0.00 0.00 0.00 0.00 0.00 0.00 0.00 0.00 0.00 0.00 0.00 0.00 0.00 0.00 0.01 0.00 0.00 0.00 0.00 0.00 0.01 0.01 0.01 0.01 0.01 0.01 0.01 0.01 0.00 0.00 0.01 0.01 0.01 0.02 0.02 0.03
0.00 0.00 0.00 0.01 0.00 0.00 0.02 0.04 0.01 0.01 0.00 0.00 0.00 0.00 0.00 0.00 0.00 0.00 0.00 0.00 0.00 0.00 0.00 0.00 0.00 0.00 0.00 0.00 0.00 0.00 0.00 0.01 0.01 0.01 0.01 0.01 0.02 0.02 0.02 0.02 0.02 0.01 0.01 0.01 0.01 0.01 0.02 0.02 0.02
MSLP
1009.24 1010.10 1010.90 1011.42 1011.51 1011.11 1010.22 1008.98 1007.58 1006.24 1005.15 1004.44 1004.14 1004.19 1004.48 1004.84 1005.15 1005.33 1005.38 1005.36 1005.38 1005.53 1005.89 1006.47 1007.25 1008.11 1008.94 1009.66 1010.18 1010.52 1010.72 1010.85 1011.00 1011.25 1011.60 1012.05 1012.54 1013.00 1013.37 1013.62 1013.76 1013.82 1013.87 1013.95 1014.09 1014.29 1014.53 1014.77 1014.96
1009.23 1010.10 1010.82 1011.20 1011.13 1010.54 1009.50 1008.16 1006.71 1005.40 1004.38 1003.78 1003.58 1003.71 1004.03 1004.39 1004.68 1004.83 1004.85 1004.84 1004.90 1005.13 1005.59 1006.30 1007.18 1008.14 1009.03 1009.77 1010.31 1010.65 1010.84 1010.97 1011.13 1011.38 1011.74 1012.18 1012.65 1013.07 1013.40 1013.60 1013.70 1013.74 1013.79 1013.89 1014.07 1014.32 1014.61 1014.88 1015.08
1009.21 1010.01 1010.60 1010.82 1010.56 1009.80 1008.65 1007.25 1005.82 1004.57 1003.67 1003.18 1003.09 1003.29 1003.64 1003.99 1004.25 1004.36 1004.38 1004.39 1004.50 1004.83 1005.40 1006.22 1007.21 1008.23 1009.17 1009.93 1010.46 1010.79 1010.97 1011.11 1011.27 1011.53 1011.89 1012.31 1012.74 1013.11 1013.37 1013.52 1013.58 1013.61 1013.67 1013.81 1014.04 1014.35 1014.69 1015.00 1015.22
1009.20 1009.88 1010.30 1010.32 1009.87 1008.98 1007.74 1006.34 1004.98 1003.85 1003.09 1002.73 1002.73 1002.99 1003.35 1003.69 1003.91 1004.01 1004.03 1004.08 1004.28 1004.70 1005.38 1006.29 1007.35 1008.41 1009.36 1010.11 1010.63 1010.93 1011.10 1011.23 1011.40 1011.66 1012.01 1012.40 1012.79 1013.10 1013.31 1013.41 1013.44 1013.46 1013.54 1013.72 1014.01 1014.39 1014.78 1015.13 1015.37
1009.21 1009.72 1009.94 1009.76 1009.15 1008.15 1006.88 1005.53 1004.27 1003.29 1002.68 1002.45 1002.54 1002.84 1003.20 1003.52 1003.72 1003.80 1003.85 1003.96 1004.23 1004.75 1005.52 1006.51 1007.60 1008.66 1009.58 1010.29 1010.75 1011.02 1011.17 1011.29 1011.46 1011.72 1012.06 1012.43 1012.78 1013.04 1013.20 1013.26 1013.26 1013.29 1013.40 1013.63 1013.98 1014.41 1014.86 1015.24 1015.50
1009.24 1009.56 1009.57 1009.20 1008.45 1007.39 1006.14 1004.88 1003.77 1002.95 1002.49 1002.38 1002.53 1002.85 1003.20 1003.48 1003.65 1003.74 1003.81 1003.98 1004.33 1004.93 1005.76 1006.78 1007.87 1008.89 1009.75 1010.39 1010.78 1011.00 1011.12 1011.23 1011.40 1011.66 1011.99 1012.35 1012.67 1012.90 1013.02 1013.05 1013.05 1013.09 1013.23 1013.50 1013.91 1014.39 1014.88 1015.28 1015.55
1009.25 1009.38 1009.20 1008.67 1007.83 1006.75 1005.57 1004.43 1003.48 1002.83 1002.51 1002.49 1002.69 1003.01 1003.32 1003.55 1003.69 1003.76 1003.86 1004.07 1004.48 1005.13 1006.00 1007.01 1008.06 1009.01 1009.79 1010.33 1010.66 1010.82 1010.90 1011.00 1011.18 1011.44 1011.78 1012.14 1012.44 1012.65 1012.76 1012.77 1012.77 1012.82 1012.99 1013.30 1013.74 1014.26 1014.77 1015.20 1015.48
1009.21 1009.16 1008.82 1008.19 1007.30 1006.26 1005.17 1004.19 1003.40 1002.91 1002.71 1002.76 1002.98 1003.26 1003.51 1003.69 1003.77 1003.82 1003.92 1004.16 1004.59 1005.26 1006.12 1007.10 1008.08 1008.95 1009.63 1010.08 1010.34 1010.45 1010.52 1010.62 1010.80 1011.08 1011.43 1011.79 1012.09 1012.29 1012.38 1012.40 1012.40 1012.47 1012.65 1012.98 1013.45 1013.98 1014.52 1014.95 1015.24
1009.08 1008.89 1008.44 1007.74 1006.86 1005.88 1004.93 1004.10 1003.49 1003.13 1003.04 1003.13 1003.34 1003.57 1003.76 1003.85 1003.88 1003.89 1003.96 1004.19 1004.62 1005.26 1006.08 1007.00 1007.89 1008.67 1009.27 1009.65 1009.86 1009.95 1010.01 1010.12 1010.32 1010.62 1010.97 1011.33 1011.63 1011.83 1011.93 1011.95 1011.96 1012.03 1012.22 1012.56 1013.02 1013.56 1014.10 1014.53 1014.82
1008.84 1008.56 1008.03 1007.32 1006.48 1005.60 1004.79 1004.13 1003.67 1003.45 1003.43 1003.55 1003.74 1003.92 1004.03 1004.05 1004.00 1003.96 1003.99 1004.18 1004.57 1005.16 1005.91 1006.74 1007.54 1008.24 1008.76 1009.10 1009.29 1009.38 1009.45 1009.58 1009.80 1010.11 1010.48 1010.83 1011.13 1011.33 1011.43 1011.45 1011.47 1011.55 1011.73 1012.06 1012.51 1013.03 1013.54 1013.97 1014.25
1008.52 1008.16 1007.61 1006.90 1006.13 1005.37 1004.70 1004.20 1003.89 1003.78 1003.84 1003.99 1004.16 1004.29 1004.33 1004.29 1004.18 1004.08 1004.06 1004.18 1004.50 1005.01 1005.67 1006.41 1007.13 1007.75 1008.23 1008.55 1008.73 1008.84 1008.94 1009.10 1009.33 1009.65 1010.01 1010.36 1010.65 1010.85 1010.95 1010.98 1011.00 1011.07 1011.24 1011.54 1011.95 1012.43 1012.91 1013.32 1013.59
1008.14 1007.73 1007.16 1006.48 1005.78 1005.14 1004.62 1004.26 1004.09 1004.09 1004.22 1004.40 1004.58 1004.69 1004.70 1004.61 1004.46 1004.31 1004.24 1004.30 1004.53 1004.95 1005.51 1006.15 1006.78 1007.35 1007.80 1008.12 1008.32 1008.46 1008.59 1008.75 1008.99 1009.30 1009.64 1009.97 1010.25 1010.44 1010.54 1010.58 1010.60 1010.67 1010.81 1011.07 1011.42 1011.84 1012.27 1012.64 1012.91
1007.74 1007.29 1006.70 1006.06 1005.44 1004.91 1004.52 1004.30 1004.26 1004.37 1004.58 1004.81 1005.02 1005.14 1005.16 1005.07 1004.91 1004.73 1004.62 1004.61 1004.77 1005.08 1005.54 1006.08 1006.64 1007.16 1007.58 1007.90 1008.13 1008.29 1008.43 1008.60 1008.82 1009.10 1009.40 1009.70 1009.96 1010.14 1010.25 1010.30 1010.33 1010.38 1010.49 1010.69 1010.97 1011.32 1011.68 1012.00 1012.24
1007.35 1006.85 1006.25 1005.64 1005.10 1004.68 1004.42 1004.34 1004.42 1004.64 1004.93 1005.23 1005.50 1005.67 1005.73 1005.68 1005.54 1005.38 1005.24 1005.19 1005.27 1005.50 1005.85 1006.30 1006.78 1007.25 1007.65 1007.97 1008.20 1008.37 1008.51 1008.65 1008.83 1009.06 1009.30 1009.56 1009.79 1009.97 1010.08 1010.15 1010.18 1010.22 1010.29 1010.43 1010.63 1010.88 1011.15 1011.41 1011.62
1006.99 1006.43 1005.83 1005.26 1004.80 1004.50 1004.37 1004.42 1004.63 1004.95 1005.33 1005.71 1006.05 1006.29 1006.42 1006.44 1006.36 1006.23 1006.10 1006.02 1006.05 1006.19 1006.45 1006.80 1007.21 1007.61 1007.98 1008.28 1008.50 1008.65 1008.76 1008.86 1008.97 1009.12 1009.31 1009.51 1009.71 1009.88 1010.01 1010.09 1010.13 1010.16 1010.19 1010.26 1010.37 1010.52 1010.70 1010.89 1011.04
1006.66 1006.07 1005.48 1004.98 1004.63 1004.46 1004.47 1004.66 1004.98 1005.39 1005.85 1006.30 1006.70 1007.01 1007.21 1007.30 1007.29 1007.21 1007.10 1007.02 1007.00 1007.07 1007.25 1007.51 1007.83 1008.18 1008.49 1008.75 1008.94 1009.05 1009.11 1009.14 1009.18 1009.24 1009.35 1009.50 1009.66 1009.83 1009.97 1010.07 1010.13 1010.15 1010.15 1010.15 1010.17 1010.22 1010.30 1010.40 1010.50
1006.36 1005.76 1005.24 1004.85 1004.65 1004.65 1004.82 1005.14 1005.57 1006.05 1006.55 1007.03 1007.46 1007.80 1008.05 1008.20 1008.25 1008.21 1008.14 1008.06 1008.01 1008.02 1008.12 1008.30 1008.54 1008.81 1009.07 1009.28 1009.41 1009.47 1009.47 1009.42 1009.38 1009.36 1009.39 1009.48 1009.61 1009.77 1009.92 1010.04 1010.11 1010.13 1010.10 1010.04 1009.97 1009.93 1009.91 1009.93 1009.98
1006.10 1005.56 1005.15 1004.95 1004.95 1005.15 1005.50 1005.96 1006.46 1006.98 1007.47 1007.91 1008.31 1008.63 1008.87 1009.03 1009.11 1009.11 1009.06 1008.99 1008.92 1008.89 1008.92 1009.03 1009.20 1009.39 1009.59 1009.74 1009.82 1009.83 1009.76 1009.65 1009.52 1009.42 1009.38 1009.42 1009.52 1009.67 1009.83 1009.96 1010.05 1010.06 1010.01 1009.90 1009.76 1009.63 1009.53 1009.47 1009.47
1005.89 1005.47 1005.27 1005.31 1005.58 1006.01 1006.56 1007.13 1007.68 1008.17 1008.58 1008.92 1009.20 1009.42 1009.60 1009.72 1009.79 1009.80 1009.76 1009.69 1009.61 1009.55 1009.54 1009.59 1009.69 1009.82 1009.96 1010.06 1010.10 1010.06 1009.95 1009.78 1009.59 1009.43 1009.33 1009.31 1009.38 1009.51 1009.67 1009.82 1009.91 1009.93 1009.86 1009.72 1009.53 1009.34 1009.17 1009.05 1009.00
1005.76 1005.54 1005.61 1005.96 1006.52 1007.22 1007.95 1008.62 1009.17 1009.57 1009.83 1009.99 1010.07 1010.12 1010.16 1010.19 1010.21 1010.20 1010.17 1010.11 1010.03 1009.96 1009.91 1009.91 1009.96 1010.05 1010.15 1010.22 1010.23 1010.17 1010.03 1009.82 1009.60 1009.39 1009.24 1009.18 1009.21 1009.31 1009.46 1009.61 1009.71 1009.73 1009.66 1009.51 1009.30 1009.06 1008.85 1008.70 1008.62
1005.74 1005.78 1006.17 1006.85 1007.73 1008.68 1009.57 1010.29 1010.79 1011.05 1011.09 1010.99 1010.83 1010.65 1010.50 1010.41 1010.35 1010.32 1010.28 1010.23 1010.16 1010.09 1010.04 1010.01 1010.04 1010.09 1010.16 1010.22 1010.23 1010.17 1010.03 1009.82 1009.57 1009.33 1009.15 1009.04 1009.03 1009.10 1009.23 1009.36 1009.47 1009.50 1009.44 1009.29 1009.08 1008.85 1008.63 1008.45 1008.35
1005.86 1006.18 1006.89 1007.90 1009.07 1010.23 1011.24 1011.97 1012.36 1012.42 1012.21 1011.83 1011.38 1010.95 1010.61 1010.38 1010.25 1010.19 1010.17 1010.14 1010.10 1010.05 1009.99 1009.96 1009.97 1010.01 1010.07 1010.13 1010.15 1010.11 1009.99 1009.79 1009.55 1009.29 1009.08 1008.93 1008.87 1008.89 1008.98 1009.10 1009.20 1009.24 1009.21 1009.10 1008.92 1008.71 1008.51 1008.34 1008.23
1006.11 1006.69 1007.69 1008.98 1010.37 1011.68 1012.74 1013.42 1013.67 1013.51 1013.04 1012.38 1011.67 1011.02 1010.51 1010.17 1009.99 1009.93 1009.93 1009.95 1009.95 1009.92 1009.89 1009.86 1009.85 1009.89 1009.95 1010.01 1010.05 1010.04 1009.94 1009.77 1009.54 1009.28 1009.03 1008.84 1008.73 1008.70 1008.75 1008.84 1008.93 1009.00 1009.00 1008.94 1008.82 1008.66 1008.49 1008.35 1008.25
1006.45 1007.25 1008.46 1009.93 1011.46 1012.84 1013.88 1014.46 1014.56 1014.19 1013.48 1012.59 1011.68 1010.87 1010.25 1009.85 1009.67 1009.64 1009.70 1009.77 1009.83 1009.84 1009.82 1009.79 1009.77 1009.79 1009.84 1009.91 1009.97 1009.98 1009.92 1009.77 1009.55 1009.29 1009.01 1008.78 1008.61 1008.52 1008.52 1008.58 1008.67 1008.75 1008.80 1008.80 1008.75 1008.65 1008.54 1008.43 1008.35
1006.85 1007.78 1009.11 1010.66 1012.22 1013.56 1014.52 1014.98 1014.91 1014.37 1013.49 1012.46 1011.43 1010.55 1009.91 1009.53 1009.40 1009.44 1009.57 1009.72 1009.83 1009.87 1009.86 1009.82 1009.78 1009.77 1009.80 1009.86 1009.92 1009.94 1009.90 1009.77 1009.56 1009.29 1008.99 1008.71 1008.49 1008.35 1008.30 1008.32 1008.40 1008.50 1008.59 1008.65 1008.67 1008.65 1008.60 1008.53 1008.48
1007.26 1008.22 1009.56 1011.08 1012.56 1013.81 1014.63 1014.95 1014.74 1014.08 1013.13 1012.05 1011.01 1010.17 1009.59 1009.30 1009.26 1009.40 1009.62 1009.84 1009.99 1010.05 1010.03 1009.96 1009.88 1009.83 1009.83 1009.86 1009.90 1009.92 1009.88 1009.76 1009.56 1009.27 1008.95 1008.64 1008.36 1008.17 1008.06 1008.06 1008.12 1008.23 1008.35 1008.46 1008.54 1008.58 1008.59 1008.57 1008.55
1007.63 1008.56 1009.82 1011.21 1012.54 1013.61 1014.28 1014.46 1014.16 1013.46 1012.51 1011.48 1010.54 1009.82 1009.37 1009.22 1009.31 1009.55 1009.85 1010.12 1010.29 1010.35 1010.31 1010.19 1010.06 1009.95 1009.89 1009.88 1009.89 1009.89 1009.85 1009.73 1009.51 1009.22 1008.88 1008.53 1008.21 1007.97 1007.82 1007.77 1007.82 1007.92 1008.06 1008.20 1008.32 1008.41 1008.46 1008.48 1008.49
1007.99 1008.82 1009.92 1011.12 1012.24 1013.11 1013.61 1013.68 1013.34 1012.66 1011.80 1010.91 1010.14 1009.60 1009.33 1009.33 1009.54 1009.88 1010.24 1010.53 1010.69 1010.72 1010.63 1010.46 1010.26 1010.09 1009.97 1009.90 1009.88 1009.85 1009.79 1009.65 1009.43 1009.12 1008.76 1008.39 1008.03 1007.75 1007.56 1007.47 1007.48 1007.57 1007.70 1007.84 1007.98 1008.09 1008.17 1008.23 1008.26
1008.35 1009.06 1009.97 1010.95 1011.83 1012.50 1012.85 1012.84 1012.49 1011.90 1011.19 1010.49 1009.93 1009.58 1009.49 1009.63 1009.94 1010.33 1010.70 1010.97 1011.10 1011.08 1010.93 1010.69 1010.44 1010.20 1010.03 1009.92 1009.84 1009.78 1009.70 1009.54 1009.30 1008.98 1008.61 1008.21 1007.83 1007.51 1007.28 1007.15 1007.12 1007.17 1007.27 1007.39 1007.52 1007.63 1007.72 1007.79 1007.86
1008.78 1009.36 1010.07 1010.82 1011.48 1011.96 1012.18 1012.12 1011.81 1011.33 1010.79 1010.29 1009.94 1009.78 1009.83 1010.07 1010.42 1010.81 1011.14 1011.36 1011.43 1011.34 1011.13 1010.84 1010.54 1010.26 1010.05 1009.90 1009.79 1009.70 1009.58 1009.40 1009.14 1008.81 1008.42 1008.00 1007.60 1007.25 1006.98 1006.81 1006.73 1006.73 1006.78 1006.86 1006.95 1007.04 1007.13 1007.21 1007.31
Thickness
5842 5843 5843 5836 5818 5808 5813 5841 5867 5873 5877 5889 5892 5887 5874 5863 5851 5838 5872 5884 5877 5862 5850 5841 5836 5830 5826 5821 5817 5813 5809 5805 5801 5798 5795 5791 5788 5785 5782 5780 5778 5776 5774 5771 5769 5767 5765 5764 5762
5849 5849 5842 5830 5811 5796 5815 5847 5863 5874 5885 5895 5893 5887 5875 5866 5874 5872 5876 5879 5873 5859 5848 5841 5834 5829 5824 5819 5815 5811 5807 5803 5800 5796 5793 5790 5787 5784 5781 5778 5776 5774 5772 5770 5767 5765 5764 5762 5760
5852 5854 5838 5832 5821 5815 5831 5861 5872 5885 5894 5892 5885 5884 5872 5864 5872 5874 5877 5879 5870 5857 5848 5839 5832 5826 5821 5817 5813 5809 5805 5802 5798 5795 5791 5788 5785 5782 5780 5777 5775 5772 5770 5768 5766 5764 5762 5760 5759
5849 5846 5839 5833 5833 5854 5865 5875 5884 5885 5889 5893 5886 5873 5871 5878 5879 5878 5880 5877 5866 5855 5847 5836 5830 5824 5819 5815 5810 5807 5803 5799 5796 5793 5790 5787 5784 5781 5778 5776 5773 5771 5768 5766 5764 5762 5760 5758 5757
5849 5840 5831 5832 5844 5869 5884 5888 5888 5881 5879 5886 5884 5864 5857 5875 5883 5881 5878 5873 5864 5856 5845 5833 5827 5822 5817 5812 5808 5804 5800 5797 5794 5791 5787 5785 5782 5779 5776 5774 5771 5769 5766 5764 5762 5760 5758 5756 5755
5839 5842 5828 5832 5849 5873 5886 5890 5887 5879 5877 5880 5876 5861 5854 5872 5873 5875 5876 5871 5866 5855 5842 5830 5824 5818 5813 5809 5805 5801 5797 5794 5791 5788 5785 5782 5780 5777 5774 5772 5769 5767 5765 5762 5760 5758 5756 5755 5753
5831 5831 5829 5841 5854 5869 5881 5890 5883 5875 5871 5875 5880 5856 5851 5862 5869 5873 5871 5869 5865 5855 5840 5829 5822 5816 5810 5806 5802 5798 5794 5791 5788 5785 5782 5779 5777 5774 5772 5770 5768 5765 5763 5761 5758 5756 5755 5753 5752
5845 5833 5829 5843 5854 5863 5882 5886 5887 5881 5872 5886 5884 5854 5842 5857 5868 5869 5865 5864 5858 5849 5838 5829 5822 5815 5809 5804 5799 5796 5792 5788 5785 5782 5779 5776 5774 5771 5769 5767 5765 5763 5761 5759 5757 5755 5754 5752 5751
5846 5821 5819 5841 5854 5864 5879 5875 5883 5890 5880 5877 5874 5864 5860 5865 5865 5859 5853 5852 5848 5843 5837 5831 5823 5816 5811 5806 5800 5794 5789 5786 5782 5779 5776 5773 5772 5770 5768 5766 5764 5762 5760 5758 5756 5755 5753 5751 5750
5835 5815 5829 5856 5866 5866 5872 5871 5874 5873 5863 5855 5855 5858 5862 5858 5854 5847 5842 5839 5837 5834 5832 5830 5823 5817 5812 5809 5801 5794 5789 5785 5781 5779 5776 5772 5771 5770 5770 5768 5764 5760 5758 5757 5755 5754 5752 5751 5751
5836 5826 5841 5855 5866 5866 5863 5865 5871 5859 5842 5840 5837 5843 5851 5848 5844 5841 5838 5836 5832 5830 5828 5826 5821 5815 5812 5807 5800 5795 5791 5787 5781 5779 5776 5772 5771 5769 5769 5767 5763 5759 5756 5754 5753 5751 5751 5751 5751
5836 5840 5846 5852 5861 5858 5855 5857 5854 5849 5842 5847 5843 5842 5843 5841 5840 5837 5832 5829 5827 5824 5822 5820 5817 5811 5806 5803 5799 5795 5791 5786 5783 5779 5775 5771 5768 5766 5765 5763 5761 5757 5754 5752 5752 5751 5750 5751 5751
5835 5841 5850 5855 5857 5856 5854 5849 5846 5842 5848 5845 5839 5835 5832 5833 5835 5836 5833 5827 5821 5816 5814 5813 5810 5805 5799 5795 5791 5790 5786 5784 5781 5777 5773 5769 5765 5761 5759 5758 5756 5755 5752 5751 5749 5749 5749 5748 5749
5837 5843 5847 5852 5853 5853 5844 5842 5839 5833 5841 5834 5827 5822 5822 5822 5822 5820 5818 5813 5808 5807 5806 5805 5801 5798 5792 5786 5782 5780 5778 5776 5774 5771 5768 5764 5760 5758 5755 5753 5750 5750 5747 5746 5745 5745 5744 5744 5745
5840 5831 5834 5844 5848 5848 5841 5824 5825 5830 5830 5820 5814 5809 5807 5807 5808 5806 5805 5803 5801 5800 5799 5796 5793 5788 5783 5778 5773 5771 5770 5768 5766 5763 5760 5757 5753 5751 5749 5747 5745 5745 5743 5741 5740 5740 5740 5739 5740
5829 5820 5815 5840 5847 5847 5829 5801 5817 5827 5817 5806 5802 5797 5792 5792 5794 5795 5796 5794 5793 5791 5788 5786 5785 5779 5774 5769 5765 5763 5761 5758 5756 5753 5751 5748 5745 5743 5741 5740 5740 5740 5738 5737 5735 5734 5733 5733 5734
5815 5810 5816 5829 5843 5842 5826 5799 5810 5820 5807 5795 5790 5785 5783 5781 5783 5785 5786 5785 5783 5780 5777 5774 5771 5767 5764 5761 5757 5755 5752 5749 5747 5744 5741 5738 5736 5735 5734 5733 5732 5732 5731 5731 5731 5730 5728 5727 5728
5807 5812 5815 5816 5827 5829 5816 5804 5808 5810 5802 5789 5783 5778 5775 5771 5771 5774 5775 5775 5773 5770 5767 5764 5760 5756 5754 5751 5747 5745 5743 5741 5738 5735 5732 5730 5729 5727 5726 5726 5725 5724 5724 5723 5724 5723 5723 5722 5723
5820 5817 5814 5815 5829 5822 5810 5799 5796 5798 5790 5779 5775 5771 5766 5764 5767 5767 5766 5766 5763 5759 5756 5753 5749 5746 5743 5739 5735 5732 5730 5729 5728 5726 5724 5722 5721 5720 5719 5718 5718 5718 5717 5717 5717 5717 5716 5716 5718
5817 5810 5812 5818 5829 5819 5802 5790 5789 5782 5778 5771 5766 5763 5761 5759 5758 5758 5758 5756 5753 5749 5746 5744 5740 5737 5734 5729 5726 5724 5722 5720 5720 5719 5717 5715 5714 5713 5712 5712 5711 5712 5711 5711 5711 5711 5710 5712 5713
5811 5806 5805 5803 5814 5816 5798 5769 5762 5764 5766 5765 5766 5763 5760 5757 5753 5752 5751 5748 5746 5742 5739 5736 5732 5728 5725 5721 5719 5716 5713 5711 5709 5708 5707 5707 5706 5705 5704 5704 5704 5704 5704 5703 5705 5705 5704 5702 5707
5796 5810 5811 5808 5798 5788 5786 5744 5737 5740 5742 5748 5756 5758 5757 5755 5752 5749 5746 5742 5739 5736 5734 5729 5725 5721 5716 5712 5708 5703 5700 5698 5698 5698 5698 5698 5698 5698 5697 5696 5696 5696 5696 5696 5696 5698 5698 5698 5698
5802 5813 5806 5800 5787 5777 5755 5728 5713 5721 5720 5734 5749 5753 5753 5751 5748 5743 5740 5736 5734 5731 5727 5722 5717 5712 5708 5704 5699 5694 5691 5690 5690 5689 5688 5687 5688 5689 5689 5689 5688 5688 5687 5688 5689 5690 5690 5691 5692
5816 5809 5797 5779 5758 5725 5720 5708 5702 5713 5723 5735 5746 5750 5749 5746 5743 5738 5736 5732 5728 5725 5720 5715 5709 5703 5699 5695 5690 5685 5681 5679 5677 5676 5676 5677 5678 5679 5680 5681 5680 5679 5679 5679 5680 5681 5682 5684 5686
5802 5781 5753 5726 5706 5699 5719 5707 5707 5734 5743 5746 5746 5746 5745 5743 5738 5732 5728 5724 5720 5715 5710 5705 5699 5694 5690 5686 5681 5677 5673 5670 5667 5667 5667 5667 5668 5668 5668 5670 5669 5669 5670 5670 5670 5671 5673 5675 5678
5795 5784 5751 5726 5721 5719 5708 5700 5713 5743 5754 5757 5753 5748 5744 5740 5735 5729 5724 5719 5713 5708 5702 5695 5689 5684 5681 5677 5672 5669 5665 5662 5660 5659 5658 5657 5657 5658 5659 5659 5659 5659 5659 5660 5661 5661 5663 5666 5669
5790 5787 5794 5775 5766 5740 5715 5709 5721 5743 5747 5751 5750 5745 5740 5735 5730 5725 5720 5714 5707 5700 5694 5688 5682 5677 5672 5668 5664 5661 5658 5655 5652 5650 5648 5647 5647 5648 5648 5648 5647 5647 5648 5649 5649 5650 5652 5655 5657
5803 5795 5783 5764 5743 5735 5722 5709 5710 5727 5735 5739 5741 5738 5735 5731 5725 5719 5713 5707 5700 5694 5687 5681 5675 5669 5665 5660 5656 5653 5650 5646 5643 5640 5638 5636 5635 5634 5634 5634 5635 5635 5635 5636 5637 5638 5641 5643 5646
5785 5780 5773 5766 5758 5739 5724 5709 5736 5736 5736 5736 5737 5735 5730 5724 5718 5713 5706 5700 5693 5686 5680 5673 5667 5661 5656 5652 5648 5644 5641 5638 5635 5631 5629 5627 5625 5623 5622 5621 5621 5622 5623 5623 5624 5625 5628 5630 5633
5785 5775 5768 5746 5742 5750 5740 5718 5753 5747 5744 5739 5734 5730 5724 5718 5713 5706 5698 5691 5683 5676 5670 5664 5658 5652 5647 5643 5639 5635 5631 5628 5623 5620 5617 5615 5613 5612 5610 5610 5608 5608 5609 5610 5610 5612 5615 5617 5620